Location: Hradec Kralove
(50.2170°N, 15.8330°E)
Time: 03:42:01
(UTC+01:00)

ISS - Visible Passes

Search period start: 15 December 2017 00:00
Search period end: 25 December 2017 00:00
Orbit: 403 x 406 km, 51.6° (Epoch: 15 December)

Date Brightness Start Highest point End Pass type
(mag) Time Alt. Az. Time Alt. Az. Time Alt. Az.
15 Dec -0.8 17:57:18 10° W 17:59:24 16° SW 18:01:29 10° S visible
16 Dec -1.4 17:04:36 10° W 17:07:21 25° SW 17:10:06 10° SSE visible
18 Dec -0.5 16:57:19 10° WSW 16:59:01 13° SW 17:00:41 10° S visible
